4P Faye 2006 11 15.4223 1.666264 0.566766 204.9800 199.2930 9.0341 8.0 6.0 6P d'Arrest 2008 08 14.9951 1.353470 0.612814 178.1252 138.9378 19.5140 7.5 16.0 7P Pons-Winnecke 2008 09 26.6337 1.253294 0.634858 172.3272 93.4231 22.3103 10.0 6.0 8P Tuttle 2008 01 27.0212 1.027136 0.819808 207.5060 270.3412 54.9828 8.0 8.0 9P Tempel 2011 01 11.8638 1.507904 0.517251 178.9199 68.9337 10.5287 5.5 10.0 10P Tempel 2010 07 04.8182 1.424335 0.536080 195.5694 117.8372 12.0239 5.0 10.0 11P Tempel-Swift-LINEAR 2008 05 04.5768 1.553565 0.544949 163.8984 240.5262 13.5532 17.0 4.0 14P Wolf 2009 02 27.0037 2.724415 0.358462 158.9025 202.1519 27.9364 5.5 12.0 15P Finlay 2008 06 22.5556 0.970036 0.721372 347.4762 13.8248 6.8143 12.0 4.0 16P Brooks 2008 04 12.5955 1.466611 0.562689 219.4711 159.3750 4.2583 7.5 10.0 17P Holmes 2007 05 04.5695 2.053207 0.432668 24.2856 326.8586 19.1134 10.0 6.0 19P Borrelly 2008 07 22.3317 1.354775 0.624448 353.3798 75.4445 30.3245 4.5 10.0 22P Kopff 2009 05 25.3762 1.578029 0.544257 162.7903 120.8979 4.7239 3.0 10.4 26P Grigg-Skjellerup 2008 03 23.6889 1.116711 0.633009 1.7153 211.7058 22.3562 12.0 16.0 29P Schwassmann-Wachmann 2004 06 26.4442 5.718218 0.044787 47.9099 312.6364 9.3940 4.0 4.0 31P Schwassmann-Wachmann 2010 10 01.3015 3.422174 0.192100 18.2346 114.1887 4.5475 5.0 8.0 36P Whipple 2012 01 01.7886 3.089461 0.258168 201.9772 182.3904 9.9352 8.5 6.0 44P Reinmuth 2008 02 18.2699 2.106401 0.428316 58.0733 286.6006 5.9047 8.3 6.0 46P Wirtanen 2008 02 02.4918 1.057458 0.658121 356.3433 82.1738 11.7391 9.0 6.0 47P Ashbrook-Jackson 2009 01 31.6269 2.799197 0.320295 357.5833 357.0187 13.0438 1.0 11.2 49P Arend-Rigaux 2005 02 16.5995 1.392844 0.606605 333.2136 118.9911 19.0763 11.3 4.4 50P Arend 2007 11 01.1819 1.924281 0.529317 49.0430 355.3306 19.1551 9.5 6.0 51P Harrington 2008 06 19.4162 1.687665 0.544478 269.1929 83.7652 5.4254 11.5 8.0 57P du Toit-Neujmin-Delporte 2008 12 26.0489 1.723717 0.500077 115.3152 188.8430 2.8482 12.5 6.0 59P Kearns-Kwee 2009 03 07.6981 2.355552 0.474816 127.5402 313.0380 9.3410 7.0 6.0 61P Shajn-Schaldach 2008 09 06.0816 2.108045 0.426518 221.6146 163.1185 6.0090 6.0 10.0 65P Gunn 2010 03 01.6852 2.441306 0.319716 196.4956 68.3787 10.3855 5.0 6.0 67P Churyumov-Gerasimenko 2009 02 28.3055 1.247182 0.640325 12.6109 50.2327 7.0415 11.0 4.0 68P Klemola 2009 01 21.0495 1.758579 0.640541 153.9977 175.3517 11.1437 10.0 4.0 70P Kojima 2007 10 05.9014 2.011872 0.453058 2.0963 119.2599 6.5957 11.0 6.0 74P Smirnova-Chernykh 2009 07 31.0050 3.557057 0.147832 87.3430 77.1140 6.6484 5.0 6.0 77P Longmore 2009 07 07.7653 2.310227 0.358416 196.6703 14.9274 24.3948 7.0 8.0 79P du Toit-Hartley 2008 05 28.4232 1.230507 0.593996 253.2743 307.8391 2.8933 16.0 4.0 81P Wild 2010 02 22.7255 1.596604 0.537535 41.8493 136.1062 3.2375 7.0 6.0 82P Gehrels 2010 01 13.9307 3.632453 0.121583 226.5311 239.5163 1.1267 5.0 8.0 85P Boethin 2008 12 16.3259 1.147535 0.775555 53.5433 343.4713 4.2157 6.5 8.0 86P Wild 2008 05 20.0012 2.301154 0.365982 179.1527 72.5835 15.4478 11.0 6.0 87P Bus 2007 07 07.2553 2.172337 0.377200 24.2804 182.1165 2.5770 7.2 10.0 88P Howell 2009 10 12.4290 1.364208 0.561950 235.9005 56.7748 4.3814 11.0 6.0 89P Russell 2009 08 17.1356 2.280621 0.399055 249.2856 42.3958 12.0315 11.5 6.0 93P Lovas 2007 12 17.3420 1.704688 0.611821 74.6658 339.9211 12.2184 9.5 6.0 99P Kowal 2007 01 20.6360 4.721502 0.229335 173.3777 28.3585 4.3378 4.5 6.0 110P Hartley 2008 02 03.4423 2.488433 0.312527 167.7874 287.7456 11.6796 1.0 12.0 113P Spitaler 2008 03 23.4034 2.128510 0.423067 49.8465 14.4725 5.7753 13.5 4.0 116P Wild 2009 07 18.8525 2.174529 0.374891 173.5925 21.0462 3.6128 2.5 10.0 117P Helin-Roman-Alu 2005 12 20.8697 3.039369 0.255777 222.8810 58.9433 8.7067 2.5 8.0 119P Parker-Hartley 2005 05 23.1383 3.042494 0.290179 181.2146 244.0809 5.1888 3.5 8.0 124P Mrkos 2008 04 27.2107 1.468573 0.542345 181.3695 1.3523 31.3407 13.5 2.8 128P Shoemaker-Holt 2007 06 13.4857 3.068584 0.319989 210.4210 214.4093 4.3550 8.5 4.0 129P Shoemaker-Levy 2005 07 06.1491 2.792544 0.259917 187.3558 301.3657 5.2857 11.0 4.0 131P Mueller 2004 12 16.7611 2.421739 0.342104 179.6862 214.2146 7.3518 11.0 4.0 135P Shoemaker-Levy 2007 05 29.9310 2.709109 0.291298 22.1236 213.2092 6.0499 7.0 8.0 136P Mueller 2007 10 22.2797 2.960685 0.293149 224.8791 137.5572 9.4272 11.0 4.0 137P Shoemaker-Levy 2009 05 13.4472 1.913204 0.575623 140.7507 233.2315 4.8602 11.0 4.0 139P Vaisala-Oterma 2008 04 19.3373 3.402793 0.246556 165.5200 242.4525 2.3297 9.5 4.0 142P Ge-Wang 2010 05 31.4583 2.486612 0.498798 175.9093 176.5548 12.3023 8.5 6.0 143P Kowal-Mrkos 2009 06 12.1096 2.538107 0.410222 320.7308 245.3839 4.6899 13.5 2.0 146P Shoemaker-LINEAR 2008 05 21.3753 1.417460 0.647993 316.8314 53.5713 23.0796 15.0 4.0 148P Anderson-LINEAR 2008 05 22.7616 1.702762 0.537892 6.6832 89.8037 3.6784 16.0 2.0 150P LONEOS 2008 11 26.0107 1.767610 0.545932 245.6773 272.4303 18.5008 13.5 4.0 156P Russell-LINEAR 2007 06 17.3580 1.592819 0.557703 357.6699 39.0415 20.7477 15.5 2.0 157P Tritton 2010 02 20.5118 1.378038 0.599143 148.0328 300.1381 7.2613 10.0 4.0 158P Kowal-LINEAR 2012 09 21.8730 4.584770 0.028710 232.0386 137.3075 7.9084 9.0 4.0 159P LONEOS 2004 03 01.1392 3.646563 0.379639 4.7772 55.1328 23.4295 10.0 4.0 166P NEAT 2002 05 12.3188 8.548058 0.381422 321.4528 64.4766 15.3780 5.5 4.0 167P CINEOS 2001 05 05.7686 11.799742 0.274000 344.3701 295.7695 19.0884 9.5 2.0 169P NEAT 2009 11 30.3956 0.607436 0.766782 217.9764 176.2044 11.3006 16.0 2.0 172P Yeung 2008 10 12.7890 2.240520 0.361895 178.9809 40.0897 11.5176 13.0 4.0 173P Mueller 2008 05 18.5231 4.214478 0.261149 29.8349 100.5697 16.4958 7.5 4.0 174P Echeclus 2015 04 18.3204 5.844033 0.457325 162.4069 173.3475 4.3389 9.5 2.0 176P LINEAR 2005 10 17.9021 2.577895 0.192860 35.9989 346.5353 0.2379 15.0 2.0 179P Jedicke 2007 12 02.8620 4.086833 0.308061 295.4461 115.8490 19.8752 2.5 8.0 180P NEAT 2008 05 26.7190 2.468692 0.357638 94.9156 84.7526 16.9136 11.0 4.0 181P Shoemaker-Levy 2006 11 25.0684 1.126703 0.706822 333.5581 37.8460 16.9289 11.5 4.0 183P Korlevic-Juric 2008 05 09.1170 3.893979 0.135818 161.6770 5.8431 18.7306 12.5 2.0 186P Garradd 2008 03 20.7622 4.263490 0.118563 278.7798 327.8488 28.8445 7.5 4.0 187P LINEAR 2008 10 06.2375 3.693217 0.170318 131.9408 112.0017 13.7325 9.0 4.0 188P LINEAR-Mueller 2007 12 16.1515 2.552131 0.416033 26.4405 359.1465 10.5456 11.5 4.0 190P Mueller 2007 07 08.2096 2.031756 0.520851 49.7350 336.1119 2.1900 13.0 4.0 191P McNaught 2007 09 13.1153 2.047867 0.420218 274.1706 106.5270 8.7613 13.0 4.0 192P Shoemaker-Levy 2007 12 17.3424 1.460074 0.773671 312.8472 51.6496 24.5604 15.0 4.0 193P LINEAR-NEAT 2008 02 20.5107 2.155763 0.395945 8.2918 335.2570 10.7041 14.0 4.0 194P LINEAR 2008 02 26.1850 1.708744 0.574149 130.6398 352.0623 11.1186 16.0 4.0 195P Hill 2009 01 21.3448 4.438410 0.314969 249.6426 243.2590 36.3657 8.5 4.0 196P Tichy 2008 02 07.1550 2.137865 0.433899 11.7166 24.3410 19.3780 13.5 4.0 197P LINEAR 2008 05 19.0176 1.060435 0.630017 188.7935 66.3890 25.5549 16.5 2.0 P/1994 J3 Shoemaker 2009 04 09.9739 2.935386 0.507143 191.9497 92.9467 24.7670 10.0 4.0 C/1995 O1 Hale-Bopp 1997 03 30.8303 0.919881 0.994974 130.6933 282.9469 89.2176 -2.0 4.0 P/1997 T3 Lagerkvist-Carsenty 2015 05 10.8538 4.254991 0.362612 333.5383 63.1426 4.8407 13.0 2.0 P/1997 V1 Larsen 2008 08 27.3495 3.272113 0.333367 133.7735 234.8151 12.1219 9.0 4.0 P/1998 QP54 LONEOS-Tucker 2007 05 12.2125 1.879748 0.552237 30.3424 341.8006 17.7122 15.0 2.0 P/1998 U4 Spahr 2012 04 25.9737 3.856805 0.309355 251.7745 181.6502 31.4910 8.0 4.0 P/1998 VS24 LINEAR 2008 05 24.6726 3.422563 0.242148 244.3746 159.1849 5.0263 13.0 2.0 P/1999 WJ7 Korlevic 2010 02 08.6930 3.182932 0.314467 154.5481 290.5624 2.9761 14.5 2.0 P/1999 XN120 Catalina 2008 11 12.7333 3.303990 0.210636 161.6505 285.4484 5.0263 13.5 2.0 P/2000 Y3 Scotti 2011 12 25.7159 3.993313 0.200047 87.7061 354.5068 2.2569 9.0 4.0 P/2001 CV8 LINEAR 2008 10 11.3673 2.159925 0.444254 151.6072 359.8958 9.0353 13.0 4.0 C/2001 Q4 NEAT 2004 05 16.1542 0.965151 1.001021 1.3124 210.3342 99.5533 3.5 4.0 P/2001 R1 LONEOS 2008 08 05.1810 1.345014 0.611638 24.9617 35.3006 7.0326 14.0 4.0 P/2001 YX127 LINEAR 2011 08 26.5263 3.428970 0.176279 115.1246 31.0687 7.9178 14.5 2.0 P/2002 CW134 LINEAR 2009 01 05.9283 1.843679 0.488881 190.2690 348.2635 15.2130 13.0 4.0 C/2002 J5 LINEAR 2003 09 20.5785 5.740387 1.000533 75.0274 314.0845 117.2671 11.0 2.0 P/2002 JN16 LINEAR 2009 01 25.0805 1.783876 0.487217 39.6845 230.0358 11.4186 14.5 4.0 C/2002 L9 NEAT 2004 04 07.1449 7.035150 1.000096 231.5035 110.3863 68.4531 8.5 2.0 P/2002 LZ11 LINEAR 2010 03 06.7116 2.364282 0.352455 107.8536 231.1006 11.5235 11.0 4.0 P/2002 O8 NEAT 2010 06 07.3345 3.216043 0.200689 222.2096 75.4538 12.7892 11.0 4.0 P/2002 Q1 Van Ness 2009 03 20.9912 1.550855 0.563953 185.0323 174.0139 36.2769 13.0 4.0 C/2002 T7 LINEAR 2004 04 22.3101 0.619940 1.000493 158.1274 95.1627 160.5215 4.0 4.0 C/2002 VQ94 LINEAR 2006 02 06.8376 6.798079 0.964653 100.0793 35.0027 70.5315 9.5 2.0 C/2003 A2 Gleason 2003 11 07.7628 11.429961 1.000407 346.7739 154.5749 8.0711 3.5 4.0 P/2003 CP7 LINEAR-NEAT 2011 05 18.2340 3.028008 0.246564 42.7826 133.1054 12.3297 14.5 2.0 C/2003 K4 LINEAR 2004 10 14.1994 1.022379 1.000701 198.4773 18.7156 134.1715 3.5 4.0 C/2003 WT42 LINEAR 2006 04 10.5695 5.191628 1.000611 92.4847 48.4419 31.4174 9.0 2.0 P/2004 A1 LONEOS 2004 09 07.4900 5.487083 0.311021 22.0178 124.9764 10.5510 6.5 4.0 C/2004 B1 LINEAR 2006 02 07.6912 1.603960 1.000984 327.9299 272.8061 114.1022 10.5 2.0 C/2004 D1 NEAT 2006 02 10.6281 4.975889 0.999588 75.5617 62.2487 45.5416 11.5 2.0 P/2004 F3 NEAT 2005 01 05.2275 2.868315 0.286487 176.3942 78.8196 15.9866 9.0 4.0 P/2004 FY140 LINEAR 2004 08 04.4944 4.109844 0.167235 239.7171 327.1844 2.1269 12.5 2.0 C/2004 L2 LINEAR 2005 11 15.4211 3.778330 0.996299 257.3360 99.1654 62.5290 7.0 4.0 P/2004 V5 LINEAR-Hill 2005 03 03.4577 4.425488 0.445447 88.2037 47.8548 19.3458 8.0 4.0 C/2005 B1 Christensen 2006 02 23.5975 3.204600 1.000747 103.1812 195.5551 92.5207 6.5 4.0 C/2005 E2 McNaught 2006 02 24.0190 1.516878 1.000616 39.9769 347.8039 17.0278 5.5 4.0 C/2005 EL173 LONEOS 2007 03 05.7648 3.886090 1.003091 261.4868 344.8102 130.6743 11.5 2.0 C/2005 K1 Skiff 2005 11 20.9018 3.695125 1.001863 134.9665 106.3052 77.7563 7.0 4.0 P/2005 L1 McNaught 2005 12 14.2077 3.145661 0.209146 149.7850 138.3126 7.7353 9.5 4.0 C/2005 L3 McNaught 2008 01 16.1903 5.593365 0.999527 47.1176 288.7399 139.4494 4.0 4.0 C/2005 Q1 LINEAR 2005 08 24.4113 6.406870 1.002042 44.6310 87.7479 105.1957 6.0 4.0 P/2005 R2 Van Ness 2011 06 15.6807 2.125433 0.379542 3.1138 312.6982 10.2419 10.5 4.0 C/2005 R4 LINEAR 2006 03 07.2654 5.186733 0.996334 6.8106 63.7687 164.0135 7.0 4.0 P/2005 RV25 LONEOS-Christensen 2006 11 06.1456 3.606685 0.166135 191.5186 246.9178 9.8830 9.5 4.0 P/2005 S2 Skiff 2006 06 27.3985 6.397287 0.197564 229.7347 161.2349 3.1403 7.5 4.0 C/2005 S4 McNaught 2007 07 19.0815 5.850617 0.998678 31.4994 318.2916 107.9603 5.0 4.0 P/2005 SB216 LONEOS 2007 02 11.0762 3.817647 0.463154 83.5425 1.6802 24.1028 12.0 2.0 C/2005 YW LINEAR 2006 12 07.7818 1.995172 0.989817 234.7923 302.0812 40.7233 10.0 4.0 C/2006 E1 McNaught 2007 01 07.0858 6.041523 1.001994 232.8304 95.0307 83.1920 6.0 4.0 P/2006 F1 Kowalski 2008 02 20.0399 4.119435 0.120327 186.8918 124.7591 21.2730 8.0 4.0 C/2006 K1 McNaught 2007 07 20.6047 4.425501 1.002056 296.4453 72.1169 53.8748 7.5 4.0 C/2006 K3 McNaught 2007 03 13.3186 2.501033 1.000822 328.0570 49.3978 92.6127 8.0 4.0 C/2006 K4 NEAT 2007 11 29.3682 3.188644 0.997790 233.6229 116.6036 111.3446 6.0 4.0 C/2006 L2 McNaught 2006 11 20.2766 1.994362 1.001192 48.0605 239.2520 101.0136 9.0 4.0 C/2006 M1 LINEAR 2007 02 13.9858 3.556150 0.977574 122.8982 231.6160 54.8695 8.5 4.0 C/2006 OF2 Broughton 2008 09 15.6845 2.431414 1.000739 95.6120 318.5089 30.1700 5.5 4.0 C/2006 P1 McNaught 2007 01 12.6880 0.171195 0.999969 156.0002 267.4158 77.8349 6.0 4.0 C/2006 Q1 McNaught 2008 07 03.8507 2.763652 0.999840 344.3785 199.5469 59.0463 5.0 4.0 P/2006 R2 Christensen 2006 06 15.6885 3.039641 0.271269 188.9705 139.1347 16.3160 11.0 4.0 C/2006 S2 LINEAR 2007 05 07.2178 3.161227 1.001317 166.3235 113.8931 98.9811 10.0 4.0 C/2006 S3 LONEOS 2012 04 17.3803 5.142856 0.999551 140.0059 38.3357 166.0304 2.0 4.0 C/2006 S5 Hill 2007 12 09.7241 2.630346 0.972896 182.1017 281.5627 10.1315 8.0 4.0 P/2006 T1 Levy 2006 10 07.0578 0.995643 0.670827 179.6796 279.7676 18.3351 10.5 4.0 P/2006 U5 Christensen 2007 01 18.7481 2.325905 0.340744 98.3586 5.0929 3.4308 12.5 4.0 C/2006 U6 Spacewatch 2008 06 05.4690 2.498300 0.998762 276.5989 180.1853 84.8779 8.0 4.0 C/2006 V1 Catalina 2007 11 26.5798 2.674802 0.990218 253.4358 335.7048 31.1218 8.0 4.0 C/2006 VZ13 LINEAR 2007 08 10.8926 1.015420 1.000293 174.1268 66.0319 134.7923 10.5 4.0 C/2006 W3 Christensen 2009 07 06.5571 3.126749 1.000069 133.4920 113.5700 127.0741 5.0 4.0 C/2006 X1 LINEAR 2006 03 06.1227 6.126119 1.001185 101.3027 255.2432 42.6159 7.0 4.0 C/2006 XA1 LINEAR 2007 07 21.9057 1.804780 0.992651 187.4391 318.6571 30.6307 10.0 4.0 C/2006 YC Catalina-Christensen 2006 09 11.3933 4.947115 0.999508 335.4732 154.2943 69.5824 8.0 4.0 C/2007 B2 Skiff 2008 08 20.8605 2.974897 0.995869 206.0001 14.8697 27.4958 6.0 4.0 P/2007 C2 Catalina 2007 09 04.4869 3.779256 0.462231 179.4413 276.1173 8.6744 10.0 4.0 C/2007 D1 LINEAR 2007 06 19.0586 8.793392 1.000281 340.1517 171.0855 41.4989 3.5 4.0 C/2007 D3 LINEAR 2007 05 27.6139 5.208689 0.992033 309.0844 148.4268 45.9249 7.5 4.0 C/2007 E2 Lovejoy 2007 03 27.4834 1.093326 0.999235 340.5476 232.4410 95.8827 9.5 4.0 C/2007 F1 LONEOS 2007 10 28.7562 0.402396 1.000207 153.7045 172.8898 116.0852 10.0 4.0 C/2007 G1 LINEAR 2008 11 16.3095 2.647054 1.001973 223.9835 78.9970 88.3442 5.5 4.0 P/2007 H1 McNaught 2007 08 17.7191 2.281109 0.378234 202.6375 144.3715 11.8737 10.0 4.0 P/2007 H3 Garradd 2007 08 15.2356 1.829109 0.477346 350.1082 263.6557 25.2158 14.0 4.0 C/2007 JA21 LINEAR 2006 11 14.7438 5.369806 1.001438 93.7521 65.5242 89.8387 8.0 4.0 C/2007 K1 Lemmon 2007 05 10.0514 9.239476 0.978686 52.0846 294.6496 108.4265 6.0 4.0 C/2007 K3 Siding Spring 2008 04 21.7088 2.050944 1.001014 23.5775 263.2575 16.2990 9.5 4.0 C/2007 K4 Gibbs 2007 05 03.3475 3.527004 1.001306 162.3499 68.5109 98.5900 10.5 4.0 C/2007 K6 McNaught 2007 07 01.2887 3.432337 0.984075 337.1089 298.0835 105.0991 11.0 4.0 C/2007 M1 McNaught 2008 08 11.8099 7.473317 0.998243 52.6626 326.8137 139.7304 6.0 4.0 C/2007 M2 Catalina 2008 12 08.5782 3.540920 0.999248 220.6723 357.2825 80.9461 8.0 4.0 C/2007 M3 LINEAR 2007 09 04.2906 3.468375 0.979235 125.7196 41.6676 161.7417 9.5 4.0 C/2007 N3 Lulin 2009 01 10.6127 1.211705 1.000227 136.8396 338.4974 178.3719 6.5 4.0 C/2007 O1 LINEAR 2007 06 03.2013 2.876756 1.003962 159.3853 116.2346 24.3852 10.0 4.0 C/2007 Q3 Siding Spring 2009 10 07.3570 2.250874 0.999866 2.1227 149.4233 65.6495 4.5 4.0 P/2007 R1 Larson 2007 08 24.0739 4.352250 0.277828 175.1807 181.6634 7.8759 8.0 4.0 P/2007 S1 Zhao 2007 12 06.7033 2.494380 0.343312 245.3891 141.6164 5.9725 13.0 4.0 C/2007 S2 Lemmon 2008 09 14.4685 5.558691 0.556932 210.4260 296.2532 16.8630 6.5 4.0 C/2007 T1 McNaught 2007 12 12.5334 0.968544 0.999779 233.7592 111.4332 117.6426 10.5 4.0 P/2007 T4 Gibbs 2007 07 20.7055 2.008764 0.617562 42.5136 37.2266 23.8728 13.0 4.0 C/2007 T5 Gibbs 2008 05 24.1765 4.049340 0.913398 34.4057 109.8429 45.6151 8.0 4.0 P/2007 T6 Catalina 2007 08 19.6034 2.231965 0.502827 335.8446 102.6329 22.1508 12.5 4.0 C/2007 U1 LINEAR 2008 08 07.0232 3.329267 1.001923 0.9220 50.0403 157.7885 9.0 4.0 P/2007 V1 Larson 2007 12 08.4739 2.676584 0.461255 51.4466 8.1810 10.7890 12.0 4.0 P/2007 V2 Hill 2007 07 30.9904 2.774777 0.318024 278.5386 99.8672 2.4707 13.0 4.0 P/2007 VQ11 Catalina 2008 02 13.6152 2.693631 0.502150 277.6735 164.0538 12.3251 12.0 4.0 C/2007 VO53 Spacewatch 2010 04 26.6855 4.845087 0.999142 75.0008 59.7525 87.0201 7.0 4.0 C/2007 W1 Boattini 2008 06 24.8880 0.849650 1.000137 306.5504 334.5303 9.8892 9.5 4.0 C/2007 W3 LINEAR 2008 06 02.8069 1.776512 1.000050 112.6335 73.0684 78.6728 12.0 4.0 C/2007 Y1 LINEAR 2008 03 19.3127 3.340791 1.000336 357.1230 133.0925 110.1765 10.5 4.0 C/2007 Y2 McNaught 2008 04 08.4077 4.208901 0.996311 257.6879 303.4619 98.5030 9.0 4.0 C/2008 A1 McNaught 2008 09 29.1343 1.073045 1.000267 348.4818 277.8856 82.5507 6.5 4.0 P/2008 A2 LINEAR 2008 06 12.0362 1.305407 0.591306 233.1676 315.5218 19.1588 15.5 4.0 C/2008 C1 Chen-Gao 2008 04 16.8491 1.262359 1.000035 180.9264 307.7819 61.7850 10.0 4.0 C/2008 E1 Catalina 2008 08 11.3404 4.829688 0.547557 269.9134 189.0391 35.0383 7.0 4.0 C/2008 E3 Garradd 2008 08 01.3169 5.532246 1.000000 217.9974 105.6725 105.0699 6.0 4.0 C/2008 G1 Gibbs 2009 01 11.9524 3.990335 0.989687 63.6956 215.9218 72.8687 9.5 4.0 P/2008 G2 Shoemaker 2009 04 09.9739 2.935386 0.507143 191.9497 92.9467 24.7670 10.0 4.0 C/2008 H1 LINEAR 2008 03 16.566 2.76108 0.94815 96.084 34.616 75.497 10.5 4.0 C/2008 J1 Boattini 2008 07 13.387 1.72402 1.00000 68.253 273.511 61.854 10.0 4.0 C/2008 J2 Beshore 2008 11 09.569 1.37158 1.00000 250.952 86.806 17.577 8.0 4.0 C/2008 J3 McNaught 2008 04 03.968 3.53197 1.00000 259.341 28.660 25.427 10.5 4.0